IRIDIUM 33 DEB, 34521

Orbit data source: Space-Track

IRIDIUM 33 DEB, 34521 is space debris in LEO originally from a launch on Sun, 14 Sep 1997 UTC launched from the Tyuratam Missile And Space Complex (TTMTR). The debris from Iridium 33, an American commercial communications satellite, has been tracked extensively since its accidental collision with the defunct Russian satellite Cosmos 2251 in 2009. This event, occurring at high speed in low Earth orbit (LEO), generated thousands of pieces of space debris, significantly increasing the risk of further collisions. The Iridium 33 debris cloud has impacted space traffic management and orbital debris mitigation strategies, making it a subject of ongoing study in space situational awareness.

Loading next visibility...
Identifier
34521, 1997-051HN
Orbit
LEO
Country
Flag of USUS
Related business
Manufacturer
Unknown
Mission
Spacecraft
Bus & Motor
Unknown
Mass
Unknown
Launch date (UTC)
1997-09-14 (28 years ago)
Launch vehicle
Unknown
Launch site
Tyuratam Missile And Space Complex (TTMTR)
Object type
Payload
Rocket body
Debris
Shape & HBR
Unknown shape, 0.1 m
Radar Cross Section
Small (<0.1 m²)

Expand to show TLE details & history
Last TLE update: 16 hours ago

TLE from 16 hours ago
0 IRIDIUM 33 DEB
1 34521U 97051HN  25350.81738739  .00003324  00000-0  63887-3 0  9995
2 34521  86.3799  28.7533 0002045 194.2970 165.8185 14.63402496885329
Epoch: 2025-12-16T19:37Z
TLE epoch observation values (Epoch: 2025-12-16T19:37:02.270Z)
Latitude
0.00003°
Longitude
8.79769°
Altitude
686.701 km
Speed
7.512 km/s
True Right ascension
01h 55m 00s
True Declination
0° 00' 00"
Sunlit
Object was in full shadow at epoch
Visualization orbit readout
Latitude
Unknown
Longitude
Unknown
Altitude
Unknown
Speed
Unknown
Apparent Right ascension
Unknown
Apparent Declination
Unknown
Sunlit
N/A
Visualization observer readout
Local Sidereal Time
10:16:52
Azimuth
Unknown
Elevation
Unknown
Doppler factor
Unknown
Orbital elements
Apogee altitude
680.576 km
Perigee altitude
677.689 km
Semi-major axis
7,057.27 km
Eccentricity
0.0002
Inclination
86.3799°
RAAN
28.7533°
Arg. of periapsis
194.297°
True anomaly
165.82424°
Mean anomaly
165.8185°
Eccentric anomaly
165.82137°
Mean motion
3.6609 °/min
Orbital period
98.34 mins
BSTAR
0.00063887
Loading maneuver chart data...
Computing Atmospheric mass density...

Documentation

Showing up to 5 results
|